Location: *
(43.0409°N, 0.1694°E)
Time: 22:21:03
(UTC+00:00)

Meteor 1-27 Rocket - Pass Details

Date: 03 October 2023
Orbit: 829 x 910 km, 81.3° (Epoch: 05 December)

Event Time Altitude Azimuth Distance (km) Brightness Sun altitude
Exits shadow 04:51:38 - 209° (SSW) 3,431 6.5 -13.0°
Rises 04:51:46 0° 209° (SSW) 3,383 6.5 -13.0°
Reaches altitude 10° 04:54:17 10° 216° (SW) 2,462 5.7 -12.5°
Maximum altitude 04:59:32 41° 287° (WNW) 1,221 4.1 -11.6°
Drops below altitude 10° 05:04:56 10° 357° (N) 2,528 6.2 -10.6°
Sets 05:07:34 0° 4° (N) 3,484 7.0 -10.1°
